Location: ????????
(55.8134°N, 38.8318°E)
Time: 23:31:20
(UTC+00:00)

Daily predictions for brighter satellites

Satellite Brightness Start Highest point End
(mag) Time Altitude Azimuth Time Altitude Azimuth Time Altitude Azimuth
Resurs 01 Rocket 3.3 18:35:40 10° SSW 18:39:33 30° W 18:43:28 10° NNW
Cosmos 921 Rocket 4.3 18:38:34 10° NW 18:42:46 38° WSW 18:46:56 10° S
Cosmos 1515 Rocket 4.3 18:38:41 10° SSW 18:43:00 58° WNW 18:47:23 10° N
Cosmos 1346 Rocket 3.9 18:40:24 10° SSE 18:43:52 29° E 18:47:22 10° NNE
Cosmos 1818 4.2 18:38:35 10° NW 18:44:00 56° NNE 18:49:22 10° ESE
SL-24 R/B - RUBIN 2 3.9 18:44:48 10° NW 18:49:05 56° SW 18:53:30 10° SSE
Cosmos 1980 Rocket 2.2 18:45:00 10° SSW 18:50:36 71° ESE 18:56:17 10° NE
Cosmos 1869 Rocket 4.1 18:47:10 10° NNW 18:51:37 61° W 18:56:02 10° S
Cosmos 1464 Rocket 4.4 18:46:10 10° SSW 18:52:20 68° WNW 18:58:29 10° N
ATLAS 2AS CENTAUR R/B 3.1 18:50:26 10° SSW 18:57:55 53° SE 19:05:08 10° NE
Cosmos 2228 Rocket 3.2 18:53:40 10° S 18:58:14 78° E 19:02:47 10° NNE
Cosmos 1844 Rocket 3.1 18:53:06 10° NNW 18:58:39 58° NE 19:04:09 10° SE
Cosmos 2322 Rocket 3.4 18:55:09 10° SSE 18:59:26 23° ESE 19:03:42 10° NE
Cosmos 2369 3.7 18:54:27 10° SSW 19:00:07 88° SE 19:05:51 10° NE
Cosmos 1092 Rocket 4.1 18:54:01 10° NNW 19:00:14 79° W 19:06:22 10° S
Cosmos 1777 Rocket 4.1 18:56:16 10° S 19:01:22 59° ESE 19:06:33 10° NNE
Spot 2 Rocket 3.9 18:56:43 10° S 19:01:41 60° WSW 19:06:43 10° NNW
NOSS 3-4 (A) 3.6 18:56:28 10° SW 19:02:19 82° NW 19:08:52 10° NE
NOSS 3-4 (C) 3.6 18:56:31 10° SW 19:02:23 82° NW 19:08:56 10° NE
Cosmos 1354 Rocket 4.1 18:57:10 10° SSW 19:02:28 85° ESE 19:07:49 10° NNE
Cosmos 1378 3.1 19:01:08 10° S 19:04:46 68° E 19:08:26 10° NNE
Meteor 2-4 Rocket 3.9 18:59:52 10° S 19:05:31 60° E 19:11:03 10° NNE
H-2A R/B 4.3 19:02:47 10° N 19:06:13 26° WNW 19:09:38 10° WSW
ISS -1.8 19:04:00 10° WSW 19:06:16 17° SSW 19:08:31 10° SSE
USA 267 3.4 18:59:53 10° E 19:06:28 87° NNE 19:13:03 10° WNW
Meteor 1-19 Rocket 4.2 19:01:27 10° SSW 19:06:53 83° WNW 19:12:21 10° NNE
Cosmos 1697 Rocket 3.4 19:04:03 10° SW 19:09:38 59° NW 19:15:16 10° NNE
Okean 1 3.9 19:07:31 10° SSW 19:11:29 60° WNW 19:15:30 10° N
Cosmos 1634 Rocket 4.0 19:06:48 10° S 19:12:58 71° E 19:19:08 10° NNE
Cosmos 1805 3.7 19:10:47 10° N 19:14:36 49° ENE 19:18:07 12° SSE
RESURS DK-1 2.3 19:11:13 10° SSW 19:15:19 66° ESE 19:19:26 10° NE
Cosmos 1461 4.1 19:11:47 10° NW 19:15:38 39° NNE 19:19:36 10° E
Cosmos 44 Rocket 4.2 19:14:13 10° WNW 19:18:30 35° WSW 19:22:45 10° S
ATLAS 3B R/B 3.1 19:11:45 10° NW 19:18:56 64° SW 19:26:10 11° SSE
ATLAS CENTAUR R/B 2.0 19:15:40 10° NW 19:20:36 68° NE 19:25:23 10° ESE
ARIANE 5 R/B 2.9 19:16:20 10° S 19:20:47 67° WSW 19:25:18 10° NNW
NOSS 3-1 (A) 4.4 19:15:12 10° NW 19:21:50 61° NNE 19:29:54 10° ESE
Cosmos 1844 4.0 19:16:07 10° NNW 19:21:57 69° NE 19:27:43 10° SE
Cosmos 1707 Rocket 3.6 19:17:51 10° S 19:22:16 75° E 19:26:42 10° NNE
NOSS 2-1 (E) 4.0 19:21:11 10° S 19:23:47 23° SE 19:26:29 10° ENE
Cosmos 2219 Rocket 4.2 19:23:12 10° ESE 19:24:26 11° E 19:25:41 10° E
Cosmos 2026 Rocket 4.4 19:19:28 10° NNW 19:25:32 63° W 19:31:40 10° S
Cosmos 1733 3.3 19:24:39 10° N 19:28:27 67° ENE 19:31:41 13° SSE
Cosmos 1655 Rocket 4.4 19:22:26 10° N 19:28:35 55° ENE 19:34:17 12° SSE
NOSS 3-1 (C) 4.1 19:22:32 10° NW 19:29:25 78° NE 19:37:46 10° ESE
Cosmos 1766 4.1 19:25:47 10° N 19:29:32 40° ENE 19:32:50 13° SE
CSL-04 DEB 4.5 19:28:30 10° NNE 19:32:26 60° ESE 19:36:25 10° S
CZ-4C R/B 3.2 19:26:44 10° NW 19:33:16 68° NNE 19:41:16 10° ESE
Cosmos 1975 4.0 19:29:38 10° NNW 19:33:27 38° W 19:37:13 10° SSW
USA 81 4.1 19:29:09 10° S 19:34:26 87° W 19:39:46 10° N
ERS-1 Rocket 4.1 19:33:36 10° SSW 19:38:15 37° W 19:42:57 10° NNW
SL-16 R/B 2.4 19:32:51 10° S 19:38:19 51° ESE 19:43:48 10° NE
Meteor 2-10 4.1 19:36:57 10° NNW 19:42:18 77° ENE 19:46:48 14° SSE
Meteor 1-4 Rocket 2.5 19:39:16 10° NNW 19:42:45 77° WSW 19:45:36 15° S
CZ-2C R/B 4.2 19:38:14 10° NNE 19:42:58 67° WNW 19:47:42 10° SSW
Cosmos 1733 Rocket 3.8 19:42:01 10° NNW 19:46:21 49° W 19:50:38 10° S
Cosmos 1782 Rocket 4.2 19:42:44 10° N 19:46:57 45° ENE 19:50:31 14° SE
Meteor 1-15 Rocket 4.4 19:44:52 10° NNW 19:50:30 70° ENE 19:55:26 14° SSE
GENESIS II 4.3 19:47:53 10° SSW 19:51:39 52° SE 19:55:31 10° NE
SAR-Lupe-4 3.5 19:51:59 10° NNE 19:55:37 89° WNW 19:59:04 11° SSW
ERS-2 4.1 19:53:54 10° NE 19:56:12 16° E 19:58:05 12° SE
Cosmos 923 Rocket 4.3 19:52:06 10° NNW 19:57:24 65° WSW 20:01:50 15° S
Cosmos 1908 Rocket 3.5 19:53:37 10° NNW 19:57:59 90° WNW 20:01:28 16° S
SJ 16-02 2.7 19:53:56 10° SW 19:58:04 41° NW 20:02:15 10° NNE
Cosmos 2278 4.1 19:53:17 10° SW 19:58:56 69° NW 20:04:39 10° NNE
Cosmos 2266 Rocket 4.0 19:55:07 10° N 20:01:27 86° E 20:06:45 15° SSE
Cosmos 2263 Rocket 4.1 19:58:18 10° WNW 20:02:09 19° W 20:05:58 10° SW
Cosmos 2360 Rocket 2.8 19:58:59 13° S 20:03:32 40° ESE 20:08:48 10° NE
NOSS 2-1 (C) 2.8 20:00:51 10° SW 20:04:00 55° SE 20:07:19 10° ENE
Cosmos 1356 3.2 20:02:07 16° S 20:04:41 75° ESE 20:08:00 10° NNE
Cosmos 1862 Rocket 3.8 20:00:38 10° SSW 20:05:05 70° WNW 20:09:37 10° N
Cosmos 1470 3.6 20:01:53 10° N 20:05:36 40° ENE 20:08:30 15° SE
Cosmos 1937 Rocket 4.3 20:02:32 15° SSE 20:06:14 35° ESE 20:11:01 10° NE
Meteor 1-13 Rocket 4.2 20:02:04 12° S 20:07:09 72° E 20:12:41 10° NNE
Cosmos 1726 2.0 20:04:33 10° N 20:08:14 85° ENE 20:10:53 18° SSE
Cosmos 2242 Rocket 4.2 20:06:29 16° SSE 20:09:48 44° E 20:14:08 10° NNE
ALOS 2 3.0 20:07:14 15° SE 20:10:46 55° ENE 20:15:05 10° N
USA 215 4.0 20:05:06 10° ENE 20:10:47 30° SE 20:16:25 10° SSW
Terra 3.6 20:10:14 10° SW 20:14:02 23° W 20:17:53 10° NW
NOSS 2-1 (D) 2.7 20:11:17 10° SW 20:14:26 67° SE 20:17:50 10° NE
Cosmos 2279 Rocket 4.2 20:09:30 10° SSW 20:15:41 71° WNW 20:21:57 10° N
Cosmos 1242 Rocket 4.0 20:12:31 10° N 20:15:42 28° ENE 20:18:32 12° ESE
BREEZE-M DEB (TANK) 3.4 20:13:55 10° WSW 20:15:43 20° S 20:15:45 20° S
Cosmos 2112 Rocket 4.2 20:12:41 10° NNW 20:17:59 66° WSW 20:22:07 17° S
Cosmos 2278 Rocket 3.2 20:12:50 10° NNW 20:18:17 44° NE 20:23:42 10° ESE
Cosmos 1680 Rocket 3.8 20:13:50 10° NNW 20:19:03 57° WSW 20:23:07 16° S
Cosmos 1441 Rocket 3.5 20:16:07 11° SSW 20:19:41 61° WNW 20:23:23 10° N
Cosmos 1346 Rocket 4.1 20:16:18 10° SW 20:20:04 38° WNW 20:23:51 10° N
Cosmos 990 Rocket 4.0 20:17:57 10° SSW 20:23:12 79° ESE 20:28:28 10° NNE
ADEOS Rocket 3.3 20:18:35 13° SE 20:23:37 59° ENE 20:29:43 10° NNW
Meteor 1-22 Rocket 4.4 20:17:45 10° NNW 20:23:41 84° ENE 20:28:37 16° SSE
Cosmos 1818 4.0 20:22:20 10° NW 20:27:35 48° SW 20:31:31 17° SSE
Cosmos 1066 Rocket 4.4 20:23:14 10° SSW 20:28:59 75° WNW 20:34:38 10° NNE
Cosmos 1953 4.5 20:26:46 10° NNE 20:29:44 19° ENE 20:32:40 10° ESE
Iridium 4 Rocket 3.4 20:25:39 10° N 20:30:08 73° W 20:33:58 16° S
Cosmos 1626 4.3 20:28:54 10° ESE 20:31:02 15° E 20:33:15 10° NE
Cosmos 1842 3.6 20:28:37 19° SSE 20:31:08 51° E 20:34:54 10° NNE
Spot 4 4.0 20:28:07 17° S 20:31:47 70° WSW 20:36:36 10° NNW
Cosmos 1980 Rocket 3.9 20:29:53 10° WSW 20:35:05 36° NW 20:40:19 10° NNE
Sich 1 Rocket 4.1 20:31:24 10° N 20:35:43 51° ENE 20:39:04 16° SE
Cosmos 1898 Rocket 3.5 20:31:36 13° SSW 20:36:19 72° ESE 20:41:38 10° NNE
Cosmos 1844 Rocket 3.6 20:37:17 10° NW 20:42:22 36° WSW 20:46:18 16° SSW
Cosmos 2322 Rocket 2.2 20:37:13 10° SW 20:42:50 86° NW 20:48:30 10° NE
Cosmos 1674 4.3 20:41:26 15° SE 20:43:37 24° E 20:46:40 10° NE
Cosmos 2344 4.1 20:36:49 10° WSW 20:44:08 64° NNW 20:52:43 10° ENE
NOSS 2-2 (C) 4.0 20:39:44 10° NW 20:44:11 83° NE 20:50:25 10° SE
Okean 1-7 3.2 20:40:37 15° SSW 20:44:13 73° WNW 20:48:37 10° N
Cosmos 1758 3.8 20:40:39 10° N 20:44:33 51° ENE 20:47:24 17° SE
SL-08 ROCKET BODY 4.4 20:40:28 10° N 20:46:25 82° ENE 20:51:01 17° SSE
USA 229 DEB 3.9 20:39:23 10° NW 20:46:35 90° SW 20:54:20 10° SE
USA 229 3.9 20:39:29 10° NW 20:46:40 90° NNE 20:54:25 10° SE
Cosmos 2322 4.4 20:43:36 17° SSE 20:47:23 38° ESE 20:52:40 10° NE
Cosmos 2333 Rocket 2.6 20:43:20 17° S 20:47:30 48° ESE 20:52:56 10° NE
ATLAS 2AS CENTAUR R/B 3.3 20:41:10 10° WSW 20:48:53 69° NNW 20:56:15 10° NE
USA 267 3.3 20:43:19 10° SE 20:49:47 59° SSW 20:56:15 10° WNW
Okean 3 3.5 20:48:34 17° SSW 20:51:49 77° WNW 20:56:06 10° N
H-2A R/B 3.4 20:48:57 10° NNE 20:53:04 76° ESE 20:55:56 19° S
Cosmos 1461 3.0 20:50:44 10° NW 20:54:47 56° SW 20:57:40 19° SSE
ASTEX 1 4.3 20:50:53 10° NNE 20:55:30 39° E 20:59:03 16° SSE
NOSS 2-2 (E) 4.0 20:51:05 10° NW 20:55:42 77° SW 21:02:13 10° SE
Meteor 1-23 Rocket 4.3 20:51:47 15° SSW 20:56:44 85° WNW 21:02:37 10° NNE
ATLAS CENTAUR R/B 2.7 20:54:49 10° WNW 20:59:11 33° WSW 21:01:50 19° S
Nadezhda 2 Rocket 4.5 20:55:05 10° NNW 21:01:19 89° WSW 21:06:07 17° S
Cosmos 1553 Rocket 4.5 20:58:59 16° SSE 21:03:37 50° E 21:09:36 10° NNE
Cosmos 2219 Rocket 2.5 21:03:06 18° S 21:07:07 52° ESE 21:12:33 10° NE
ATLAS 3B R/B 4.4 21:03:28 10° WNW 21:08:32 20° WSW 21:13:24 11° SSW
SL-19 R/B 3.8 21:06:57 21° SE 21:08:46 64° ENE 21:11:37 10° NNW
Cosmos 494 Rocket 3.9 21:07:29 10° NNW 21:12:39 88° ENE 21:16:50 16° SSE
Cosmos 1048 Rocket 3.9 21:07:35 10° NNW 21:12:49 87° WSW 21:16:55 16° SSE
NOSS 3-1 (A) 4.1 21:06:03 10° NW 21:13:07 66° SW 21:21:32 10° SSE
NOSS 2-1 (E) 3.7 21:10:41 10° WSW 21:13:49 52° NNW 21:17:23 10° NE
Cosmos 372 Rocket 3.9 21:11:22 16° SSW 21:15:27 79° ESE 21:20:40 10° NNE
Cosmos 2221 Rocket 4.0 21:13:38 19° SSE 21:16:33 51° E 21:20:51 10° NNE
NOSS 3-1 (C) 4.5 21:13:24 10° NW 21:20:14 45° SW 21:26:41 16° S
CZ-4C R/B 3.2 21:15:13 10° NW 21:21:59 54° SW 21:29:10 13° SSE
SL-16 R/B 3.3 21:17:07 10° WSW 21:22:34 45° NW 21:28:02 10° NNE
Cosmos 1378 Rocket 4.3 21:23:48 18° SSE 21:26:47 44° E 21:31:01 10° NNE
Cosmos 1707 2.7 21:25:34 21° SSW 21:28:07 80° WNW 21:32:01 10° N
Gblst 52 Del rocket 4.5 21:23:44 10° WSW 21:29:42 49° SSE 21:35:06 10° E
ERS-2 2.4 21:26:21 10° NNE 21:29:58 64° WNW 21:32:29 18° SSW
Cosmos 1300 3.8 21:27:31 10° N 21:31:07 39° ENE 21:34:16 13° SE
NOSS 2-2 (D) 4.2 21:27:04 10° WNW 21:31:39 60° SW 21:38:03 10° SSE
Cosmos 1238 Rocket 2.0 21:28:51 10° NNW 21:31:48 78° W 21:33:24 25° S
Okean 2 3.4 21:30:37 21° S 21:33:18 79° E 21:37:25 10° NNE
Cosmos 1745 Rocket 4.0 21:28:57 10° N 21:35:15 83° ENE 21:40:23 16° SSE
Cosmos 2237 Rocket 3.4 21:33:08 15° SSE 21:36:53 28° ESE 21:41:41 10° NE
SJ 16-02 4.4 21:36:08 10° NW 21:37:52 12° NNW 21:39:37 10° N
USA 290 2.6 21:38:03 24° S 21:39:39 50° ESE 21:42:48 10° NE
Resurs 1-4 Rocket 4.3 21:36:38 10° NE 21:39:48 16° E 21:42:57 10° ESE
COSMOS 2428 2.8 21:35:55 18° SSW 21:40:12 63° ESE 21:45:51 10° NE
Cosmos 1470 4.3 21:38:13 10° NNW 21:41:24 25° W 21:43:46 14° SW
PSLV R/B 3.7 21:38:25 10° NNE 21:42:48 71° ESE 21:45:55 19° S
Cosmos 2151 Rocket 3.8 21:39:18 10° NNW 21:43:39 59° W 21:46:36 20° S
KORONAS-FOTON 3.7 21:41:50 21° SSW 21:44:17 85° WNW 21:48:08 10° NNE
SL-14 R/B 4.2 21:42:36 17° SSE 21:45:10 38° E 21:48:46 10° NNE
Cosmos 1943 Rocket 3.0 21:41:42 10° NNW 21:47:17 54° NE 21:52:51 10° SE
ALOS 2 4.1 21:44:37 14° SW 21:47:25 24° W 21:51:02 10° NW
Cosmos 2360 Rocket 2.9 21:41:56 10° SW 21:47:28 53° NW 21:53:02 10° NNE
Nimbus 7 Rocket 4.4 21:41:40 10° NNE 21:47:37 78° ESE 21:52:13 17° SSW
Okean 2 Rocket 3.6 21:43:19 10° NNW 21:47:42 49° W 21:50:44 19° SSW
Cosmos 1937 Rocket 4.2 21:42:56 10° SW 21:48:04 52° NW 21:53:17 10° NNE
Cosmos 1242 Rocket 3.7 21:47:08 10° NNW 21:50:23 32° W 21:52:20 19° SW
ERBS 4.5 21:51:11 11° SE 21:51:11 11° SE 21:51:47 10° ESE
USA 305 4.3 21:51:03 18° SSE 21:52:12 20° SE 21:55:17 10° E
In-Cosmos 22 4.3 21:47:56 17° SSW 21:52:20 76° WNW 21:57:48 10° NNE
Cosmos 2333 4.4 21:47:08 10° SW 21:52:41 70° NW 21:58:22 10° NNE
USA 215 3.3 21:48:03 10° ENE 21:54:36 68° SSE 22:01:08 10° SW
Cosmos 405 Rocket 2.7 21:53:19 21° S 21:55:41 70° E 21:59:30 10° NNE
Cosmos 1437 Rocket 2.7 21:52:06 10° NNW 21:55:51 67° W 21:58:15 21° S
Meteor 1-21 4.5 21:52:16 16° SSW 21:57:02 69° WNW 22:02:51 10° NNE
Cosmos 1867 3.7 21:53:07 16° SSW 21:57:26 63° SE 22:02:52 10° NE
Cosmos 1908 3.8 21:53:55 10° NNW 21:57:33 43° W 21:59:48 20° SSW
Cosmos 2298 Rocket 4.5 21:54:04 18° S 21:57:52 52° ESE 22:03:01 10° NE
GP-B 3.8 21:56:37 10° N 22:00:56 47° E 22:04:38 13° SSE
ATLAS 5 CENTAUR R/B 4.0 21:46:30 10° NW 22:01:34 46° WSW 22:05:22 16° S
Cosmos 2278 Rocket 2.5 21:57:02 10° NW 22:02:34 53° WSW 22:07:02 15° S
Cosmos 839 Rocket 4.3 21:57:39 10° NW 22:03:45 55° SW 22:10:45 10° SSE
Cosmos 1626 2.3 22:03:15 20° SSW 22:05:40 62° WNW 22:09:20 10° N
Cosmos 1953 2.4 22:02:28 10° NNW 22:06:29 63° W 22:09:10 19° S
ADEOS Rocket 3.9 22:05:31 15° SSW 22:09:36 33° W 22:15:04 10° NNW
Cosmos 2369 Rocket 3.5 22:10:23 10° NNW 22:15:43 42° NE 22:21:00 10° ESE
Cosmos 1674 3.5 22:16:06 16° SW 22:18:48 40° WNW 22:22:25 10° N
Okean 1 Rocket 3.6 22:19:51 10° NNW 22:24:05 46° W 22:27:12 17° SSW
SL-16 R/B 3.1 22:18:11 10° SE 22:24:15 58° ENE 22:30:23 10° NNW
SL-16 R/B 3.8 22:20:42 10° SSE 22:25:08 24° ESE 22:29:36 10° NE
USA 32 4.1 22:21:56 16° S 22:26:14 81° E 22:31:32 10° N
Cosmos 2322 Rocket 4.0 22:22:49 10° W 22:27:40 29° NNW 22:32:33 10° NNE
Cosmos 1980 3.9 22:24:18 16° SSW 22:28:46 62° ESE 22:34:22 10° NE
Cosmos 1709 Rocket 4.0 22:23:29 10° NNW 22:29:36 69° W 22:34:54 14° S
Lacrosse 5 3.6 22:27:49 12° SSE 22:30:41 19° SE 22:34:15 10° E
Meteor 2-10 Rocket 3.7 22:25:07 10° NNW 22:30:50 74° W 22:35:45 13° S
Cosmos 2322 4.3 22:25:48 10° SW 22:31:26 57° NW 22:37:07 10° NNE
Cosmos 2333 Rocket 3.1 22:26:24 10° WSW 22:31:52 47° NW 22:37:22 10° NNE
Cosmos 371 Rocket 3.3 22:28:14 16° SSW 22:32:04 80° ESE 22:36:57 10° NNE
USA 267 4.3 22:29:44 14° S 22:33:45 24° SW 22:38:57 10° WNW
USA 306 3.8 22:31:31 17° SSW 22:33:55 31° SSE 22:37:37 10° E
Cosmos 1269 Rocket 4.0 22:28:39 10° NNW 22:33:57 81° WSW 22:39:14 10° SSE
ASTEX 1 4.3 22:29:58 10° N 22:34:30 38° WNW 22:38:32 13° SW
Cosmos 2184 Rocket 4.5 22:31:38 10° N 22:37:53 62° ENE 22:44:02 10° SSE
USA 307 3.9 22:35:30 17° SSW 22:37:56 29° SSE 22:41:35 10° E
Cosmos 2315 Rocket 4.1 22:33:42 14° S 22:39:16 85° E 22:45:42 10° NNE
ATLAS 2AS CENTAUR R/B 4.0 22:33:37 10° WNW 22:40:55 47° N 22:47:48 10° ENE
Cosmos 304 Rocket 4.0 22:37:17 16° SSW 22:41:08 65° ESE 22:45:56 10° NNE
S3M 4.3 22:39:28 14° SSW 22:45:00 61° WNW 22:51:18 10° N
Meteor 1-24 Rocket 4.2 22:43:16 10° S 22:48:34 52° E 22:53:49 10° NNE
Cosmos 2219 Rocket 3.1 22:45:54 10° WSW 22:51:14 44° NW 22:56:37 10° NNE
CZ-2D R/B 2.8 22:49:04 10° NNE 22:54:19 50° E 22:59:28 10° S
Cosmos 1455 2.5 22:51:08 10° N 22:54:51 64° ENE 22:58:32 10° SSE
Cosmos 2150 Rocket 4.2 22:52:05 13° SW 22:56:43 70° WNW 23:01:54 10° NNE
MOZ.5/SAFIR/RUBIN 5/SL-8 4.2 22:56:16 13° S 23:00:16 47° W 23:04:54 10° NNW
Cosmos 1455 Rocket 3.4 22:57:09 10° NNW 23:01:31 51° W 23:05:22 13° S
NOSS 7 (E) 4.3 22:58:43 10° NW 23:01:49 87° NE 23:05:32 10° SE
Cosmos 1271 Rocket 3.6 22:58:31 10° N 23:02:15 49° ENE 23:05:59 10° SSE
Cosmos 1300 4.1 23:03:23 10° NNW 23:06:31 25° W 23:09:06 13° SW
NOSS 0 Rocket 4.1 23:01:02 11° SW 23:07:08 75° NW 23:13:25 10° NE
Cosmos 1125 Rocket 3.9 23:03:17 11° SW 23:08:13 58° NW 23:13:23 10° NNE
USA 308 3.5 23:05:02 13° SW 23:08:27 39° SSE 23:12:22 10° E
SME Rocket 3.8 23:05:13 12° S 23:08:53 47° W 23:14:25 10° NNW
CZ-4C R/B 4.4 23:04:57 10° WNW 23:09:34 18° WSW 23:14:17 11° SW
Meteor 2-5 Rocket 3.8 23:07:46 11° S 23:13:16 86° ESE 23:18:57 10° NNE
USA 290 4.4 23:11:49 10° W 23:14:18 20° NW 23:16:48 10° N
Cosmos 2237 Rocket 2.4 23:14:56 11° SW 23:20:31 73° NW 23:26:16 10° NNE
Resurs 1-4 Rocket 2.2 23:15:14 10° NNE 23:20:32 77° ESE 23:25:49 10° SSW
Gblst 52 Del rocket 4.3 23:15:12 10° W 23:20:59 56° S 23:26:21 10° ESE
Cosmos 1975 Rocket 3.4 23:19:32 12° SSW 23:23:36 59° WNW 23:28:03 10° N
COSMOS 2428 3.9 23:19:31 10° WSW 23:24:49 39° NW 23:30:09 10° NNE
ERBS 2.5 23:23:12 12° SW 23:25:48 45° SSE 23:28:45 10° ENE
Cosmos 1025 Rocket 3.2 23:23:16 11° SSW 23:27:18 64° WNW 23:31:36 10° N
Genesis I 3.4 23:23:30 10° NW 23:27:37 81° NE 23:31:40 10° SE
CZ-4 R/B 3.8 23:24:33 10° NNE 23:29:15 87° ESE 23:33:54 10° SSW
Cosmos 1943 Rocket 2.7 23:25:41 10° NW 23:30:58 41° WSW 23:36:13 10° S
USA 305 3.1 23:27:06 10° WSW 23:31:09 51° SSE 23:35:12 10° E
Cosmos 2360 Rocket 4.4 23:28:21 10° WNW 23:32:44 22° NNW 23:37:08 10° NNE
Cosmos 1606 Rocket 4.5 23:28:58 10° N 23:33:19 51° ENE 23:37:35 10° SSE
IDEFIX/ARIANE 42P 3.3 23:28:36 10° NNE 23:33:45 50° E 23:38:52 10° S
Cosmos 332 Rocket 4.1 23:29:39 10° SW 23:34:24 62° WNW 23:39:11 10° NNE
ADEOS II 2.6 23:29:19 10° NNE 23:34:31 59° ESE 23:39:42 10° S
Cosmos 2297 4.1 23:30:56 10° NW 23:36:24 46° WSW 23:41:50 10° S
Cosmos 2263 4.3 23:31:17 10° NW 23:36:59 87° NE 23:42:43 10° SE
YAOGAN 11 4.3 23:33:12 10° S 23:37:36 59° WSW 23:42:07 10° NNW
Cosmos 614 Rocket 4.1 23:32:40 10° NW 23:37:45 56° WSW 23:42:49 10° S
USA 215 3.4 23:31:14 10° E 23:37:49 83° N 23:44:24 10° W
GP-B 4.4 23:34:17 10° NNW 23:38:02 27° WNW 23:41:46 10° SW
Thor Agena Rocket 4.1 23:33:11 10° N 23:38:18 52° WNW 23:43:27 10° SW
Cosmos 1867 4.5 23:35:59 10° WSW 23:41:17 48° NNW 23:46:37 10° NE
Lacrosse 5 rocket 2.6 23:39:15 10° SSW 23:42:35 27° SE 23:46:07 10° E
UNK 4.0 23:38:13 10° S 23:42:42 51° W 23:47:15 10° NNW
Cosmos 2154 Rocket 4.1 23:38:04 10° NNW 23:44:23 71° W 23:50:40 10° S
Cosmos 2278 Rocket 4.1 23:43:42 10° WNW 23:45:24 11° W 23:47:05 10° WSW
Cosmos 1544 Rocket 4.4 23:43:53 10° NNW 23:47:55 35° W 23:51:54 10° SSW
Cosmos 2251 Rocket 3.5 23:42:53 10° NNW 23:48:08 70° WSW 23:53:23 10° SSE
NPP 3.8 23:48:33 10° NNE 23:53:58 76° WNW 23:59:21 10° SSW
Cosmos 1703 3.7 23:50:36 10° S 23:54:29 63° E 23:58:23 10° NNE
Helios 1A 3.1 23:50:38 10° S 23:54:48 60° WSW 23:59:01 10° NNW
